This is the latest recevied weather packets stored in our database for station/object KD0RIH. If no packets are shown the sender has not sent any weather packets the latest 10 day(s).
| Time | Temp. | Humidity | Pressure | Rain* | Wind** | Luminosity | Snow |
|---|---|---|---|---|---|---|---|
| 1777799935 | 9.44° C | 57% | 1014.9 hPa | 0 mm | - | 0 W/m² | - |
| 1777799632 | 9.44° C | 57% | 1015.1 hPa | 0 mm | - | 0 W/m² | - |
| 1777799329 | 8.89° C | 58% | 1015.1 hPa | 0 mm | - | 0 W/m² | - |
| 1777799024 | 8.33° C | 60% | 1015.2 hPa | 0 mm | - | 0 W/m² | - |
| 1777798720 | 7.78° C | 62% | 1015.3 hPa | 0 mm | - | 0 W/m² | - |
| 1777798417 | 7.78° C | 65% | 1015.2 hPa | 0 mm | - | 0 W/m² | - |
| 1777798114 | 7.78° C | 64% | 1015.3 hPa | 0 mm | - | 0 W/m² | - |
| 1777797812 | 7.78° C | 62% | 1015.5 hPa | 0 mm | - | 0 W/m² | - |
| 1777797509 | 8.33° C | 62% | 1015.4 hPa | 0 mm | - | 0 W/m² | - |
| 1777797206 | 8.33° C | 61% | 1015.3 hPa | 0 mm | - | 0 W/m² | - |
| 1777796903 | 8.33° C | 59% | 1015.4 hPa | 0 mm | - | 0 W/m² | - |
| 1777796600 | 8.89° C | 59% | 1015.4 hPa | 0 mm | - | 0 W/m² | - |
| 1777796295 | 8.89° C | 57% | 1015.5 hPa | 0 mm | - | 0 W/m² | - |
| 1777795991 | 9.44° C | 56% | 1015.5 hPa | 0 mm | - | 0 W/m² | - |
| 1777795687 | 9.44° C | 55% | 1015.3 hPa | 0 mm | - | 0 W/m² | - |
| 1777795385 | 9.44° C | 54% | 1015.5 hPa | 0 mm | - | 0 W/m² | - |
| 1777795081 | 9.44° C | 54% | 1015.5 hPa | 0 mm | - | 0 W/m² | - |
| 1777794777 | 9.44° C | 53% | 1015.5 hPa | 0 mm | - | 0 W/m² | - |
| 1777794474 | 9.44° C | 54% | 1015.6 hPa | 0 mm | - | 0 W/m² | - |
| 1777794169 | 9.44° C | 53% | 1015.6 hPa | 0 mm | - | 0 W/m² | - |
| 1777793865 | 9.44° C | 53% | 1015.6 hPa | 0 mm | - | 0 W/m² | - |
| 1777793563 | 9.44° C | 53% | 1015.7 hPa | 0 mm | - | 0 W/m² | - |
| 1777793261 | 9.44° C | 53% | 1015.9 hPa | 0 mm | - | 0 W/m² | - |
| 1777792958 | 10° C | 53% | 1016 hPa | 0 mm | - | 0 W/m² | - |
| 1777792654 | 10° C | 52% | 1016 hPa | 0 mm | - | 0 W/m² | - |
* Rain latest hour (hover to see other rain measurements)
** Current wind speed in m/s (hover to see current wind gust speed)